Theta_e
315 313 317 320 322 322 324 323 318 322 322 320 322 322 320 323 324 321 322 322 320 321 328 342 350 349 347 354 355 353 355 361 362 345 340 348 347 348 348 346 344 341 345 348 347 348 346 346 344 342 341 336 335 332 328 330 331 329 328 327 326 325 327 329 330 330 331 331 332 333 334 337 337 337 337 337 337 336 336 335 334 334 334 334 336 336 337 338 337 338 338 339 339 339 339 338 338
314 315 322 325 323 323 327 325 322 324 322 318 320 323 322 324 324 321 324 320 322 332 342 352 355 356 352 353 355 353 352 353 351 347 347 347 348 349 347 347 342 340 345 347 347 347 346 346 344 343 340 336 336 332 328 331 331 330 329 328 329 329 331 335 335 332 330 330 331 332 337 339 337 338 337 337 337 336 336 336 336 335 334 334 335 336 337 337 337 337 337 338 337 338 337 336 336
313 316 322 326 322 324 328 326 326 324 320 318 320 325 322 322 324 324 326 318 328 343 350 356 359 355 352 361 361 352 349 349 349 347 347 348 349 348 347 346 341 341 344 346 347 347 346 345 345 343 340 337 336 332 328 331 332 331 329 330 333 333 334 337 337 335 332 330 330 332 338 339 335 337 338 337 337 337 337 337 337 336 335 334 336 336 336 337 337 337 337 337 337 337 336 335 334
312 315 321 325 324 326 332 331 332 327 321 320 319 323 323 323 325 323 323 320 327 336 349 361 362 351 356 369 362 359 356 350 349 347 347 347 348 348 347 345 342 343 344 347 347 346 346 344 345 343 341 338 336 333 329 333 334 332 330 333 336 334 335 337 337 337 334 331 331 334 339 339 335 337 338 337 337 338 339 339 339 338 336 335 337 337 337 337 337 337 337 337 336 335 335 333 330
311 317 321 325 326 325 329 329 330 326 321 322 318 323 327 323 322 322 322 320 318 325 346 363 364 352 356 360 355 363 359 351 348 346 347 346 347 347 346 345 342 343 345 347 346 346 346 343 344 342 342 339 337 335 332 335 336 335 332 333 336 335 335 337 337 338 336 331 332 336 338 339 337 338 338 337 338 339 340 340 339 338 334 331 331 333 334 336 336 336 335 334 333 333 332 330 329
314 318 320 322 323 322 326 325 325 325 323 323 321 326 328 322 321 320 319 318 321 333 351 360 361 358 358 353 352 356 353 352 349 345 347 346 347 346 345 344 341 344 345 346 346 346 346 344 344 342 341 340 338 337 336 337 336 337 334 333 335 333 333 337 338 338 338 333 332 337 338 339 338 338 338 337 338 339 339 339 337 335 331 324 323 325 328 332 333 333 332 332 331 331 330 328 330
316 319 320 322 322 322 329 330 328 328 326 321 322 326 324 323 321 316 318 318 323 342 356 356 354 362 360 352 355 352 348 351 347 345 347 346 345 344 343 342 341 345 345 346 346 345 346 344 344 342 341 341 340 339 339 337 334 337 335 333 333 331 333 337 338 337 338 333 333 339 339 339 338 338 338 337 337 337 337 337 335 334 331 323 320 322 325 329 330 331 330 330 330 329 328 328 331
318 321 322 326 325 323 327 327 326 328 327 322 322 323 323 323 320 316 319 316 320 341 355 351 351 366 360 352 359 351 346 348 345 347 346 345 343 341 341 338 340 345 346 345 346 345 346 345 343 342 341 342 341 340 340 336 332 335 334 333 333 332 334 337 338 337 337 334 334 339 339 339 338 339 339 337 336 336 336 336 336 335 332 326 320 320 323 327 329 330 330 330 329 327 328 329 331
319 319 320 325 325 323 323 322 320 323 323 322 320 321 324 322 321 318 316 323 334 347 353 350 353 365 359 353 359 349 344 346 346 346 344 343 341 339 339 337 338 344 346 345 345 346 345 345 343 342 342 342 341 340 339 335 331 332 333 334 335 334 336 338 338 337 336 334 334 338 338 338 338 339 338 336 335 336 336 336 336 334 332 330 322 318 321 326 328 329 329 328 327 327 328 330 332
322 318 320 324 323 322 322 322 321 322 320 321 319 318 321 317 319 317 318 333 343 351 352 352 358 360 358 355 355 349 345 345 345 344 343 342 339 337 338 337 337 342 345 345 346 345 345 345 344 343 342 343 342 340 338 334 330 330 333 336 336 335 336 337 336 336 335 334 334 337 338 338 338 337 337 335 336 337 336 337 336 334 333 331 323 317 319 324 327 328 328 326 326 328 329 331 333
325 319 322 328 324 322 323 324 325 324 321 319 317 317 318 315 317 317 330 347 349 356 353 355 360 355 355 355 353 348 344 344 344 343 341 341 338 337 337 336 337 340 344 345 345 344 344 344 344 344 343 343 342 340 338 335 331 330 333 337 337 334 334 334 334 335 335 334 333 336 338 338 338 338 338 336 337 337 337 337 336 335 333 330 326 319 317 322 326 327 326 325 327 329 330 332 334
327 320 325 330 326 325 325 325 324 324 321 317 316 318 319 317 317 321 339 357 355 356 354 357 359 354 358 357 352 347 345 344 342 342 342 341 340 339 338 336 336 340 344 344 344 344 344 344 344 344 343 343 342 340 337 335 334 331 334 337 337 334 333 332 332 333 334 335 333 334 337 338 337 338 339 338 338 337 337 337 335 334 333 330 327 321 316 320 325 326 325 326 329 330 331 333 334
326 323 325 326 325 325 322 321 321 321 321 319 318 318 319 317 320 330 346 354 353 355 350 353 355 356 359 355 351 348 347 345 342 343 343 343 343 342 341 340 338 338 341 342 344 344 344 343 344 344 343 343 341 340 337 336 335 333 335 337 337 335 333 333 332 332 334 334 333 334 335 336 336 338 339 338 339 338 338 337 335 333 332 329 328 323 316 318 324 324 324 328 330 330 332 333 333
324 324 327 324 321 322 319 318 319 318 319 321 321 319 321 318 320 338 357 356 351 353 350 349 351 356 358 354 353 349 347 345 342 343 344 345 344 343 342 341 340 338 339 341 343 344 344 344 344 344 343 343 341 339 339 338 335 334 335 335 336 334 334 333 332 333 333 333 333 334 335 336 338 339 339 338 339 339 338 336 335 333 331 329 328 324 318 317 322 323 326 330 330 331 333 333 333
321 322 326 323 319 318 317 318 318 315 316 320 319 318 320 318 322 337 354 357 352 349 349 349 347 352 356 356 355 350 346 344 343 344 344 345 344 343 342 341 341 341 342 342 342 343 343 344 344 344 343 342 340 339 339 338 336 336 335 335 335 334 333 332 332 333 332 333 333 333 334 336 338 339 339 338 338 339 338 336 335 333 331 330 328 325 320 319 322 325 329 330 330 331 333 333 332
320 320 320 319 318 317 316 317 316 314 317 320 318 317 319 316 321 333 339 347 352 346 347 349 346 348 353 354 353 348 344 344 344 344 344 345 344 343 342 342 343 343 343 342 342 343 343 344 344 344 343 342 340 339 339 338 337 337 335 335 335 333 332 332 332 333 332 333 333 333 334 335 337 338 339 338 339 339 338 336 335 333 331 329 329 325 321 322 324 328 331 329 330 331 332 332 332
316 318 319 316 317 316 316 318 315 315 317 320 318 317 320 315 321 336 339 345 351 347 347 349 348 349 353 353 349 345 343 343 343 344 343 343 343 343 343 343 343 343 342 342 342 342 343 343 343 343 343 342 341 339 340 339 339 339 336 335 334 333 332 331 333 335 335 335 334 333 334 335 337 338 338 337 339 338 337 336 334 333 331 330 329 327 322 323 327 330 331 329 330 331 332 332 332
316 319 319 317 316 315 318 319 316 315 315 319 317 316 318 315 322 336 344 348 347 349 349 348 350 349 350 349 346 343 342 343 343 343 343 342 343 342 342 342 342 342 341 342 342 342 341 341 343 343 343 342 341 340 341 340 340 339 337 336 334 333 333 333 335 337 337 336 336 335 335 336 337 337 337 337 338 337 336 336 333 332 331 330 330 329 323 322 329 331 330 329 330 331 332 333 333
319 321 318 317 316 315 318 317 315 314 314 317 316 317 315 314 319 328 345 351 348 357 354 348 351 349 347 345 342 341 341 343 342 342 342 341 340 339 339 340 341 341 340 342 342 342 341 342 343 343 343 342 341 341 341 340 340 339 338 337 335 334 335 336 337 337 338 337 337 337 336 337 338 338 336 337 337 336 336 335 333 332 331 330 330 330 326 322 326 331 329 329 330 331 333 334 334
319 319 317 318 316 315 316 314 314 314 314 316 316 317 316 315 314 321 347 354 350 361 358 355 356 350 347 344 341 340 340 341 341 341 341 339 338 338 339 339 340 341 340 341 342 343 343 343 343 343 342 342 341 341 340 340 340 339 339 337 335 336 337 338 338 338 338 338 337 337 337 337 338 338 336 336 336 335 336 336 334 332 331 331 330 330 329 323 322 328 329 328 330 332 334 335 334
316 317 318 319 315 315 316 315 315 316 315 315 316 316 316 315 316 331 351 351 353 360 357 361 360 349 347 345 340 340 340 341 341 341 339 337 337 338 338 338 338 340 340 340 341 342 343 342 342 342 342 341 341 340 340 340 339 339 339 338 336 337 338 338 339 338 338 338 337 337 337 338 338 338 337 337 336 335 335 336 335 334 332 331 331 330 330 326 322 324 327 329 331 333 334 335 334
314 316 316 316 314 314 316 315 315 317 316 315 317 315 316 314 320 344 352 346 354 359 355 355 352 346 346 344 341 340 340 340 341 340 338 337 336 337 337 337 338 339 340 339 339 341 342 342 341 341 341 341 341 340 340 340 340 340 340 338 337 339 340 339 340 339 338 337 337 337 337 337 337 337 337 337 337 336 335 335 335 334 331 331 331 330 329 328 325 325 327 329 331 333 335 335 334
316 316 315 314 314 314 314 315 316 318 315 316 318 314 317 314 317 335 336 326 328 342 354 352 345 345 344 343 341 341 341 340 339 338 337 337 335 336 336 337 338 339 340 338 337 340 341 341 341 341 341 341 341 340 339 339 340 340 340 339 337 338 340 340 340 340 339 338 337 336 336 336 336 336 336 337 337 336 335 334 334 332 330 330 332 331 330 328 327 327 329 330 332 334 335 334 334
315 315 315 314 313 314 313 315 316 316 315 317 318 314 316 317 315 319 319 319 327 339 352 349 344 344 343 343 342 341 340 337 337 337 338 337 335 336 336 337 338 338 338 337 335 337 340 339 340 340 341 341 341 340 340 339 340 340 339 338 337 338 339 340 340 340 339 338 337 336 336 336 335 334 333 335 335 335 334 333 332 331 329 331 332 332 331 329 328 329 329 330 333 335 335 335 334
313 313 314 313 313 313 312 313 314 315 316 315 315 314 317 318 314 315 313 326 344 348 347 346 345 345 344 344 341 339 339 336 335 336 338 337 335 336 336 337 338 336 335 335 333 335 337 336 337 339 340 340 340 341 340 340 339 339 338 337 337 338 339 339 339 339 338 338 337 336 336 336 335 333 332 333 333 333 333 332 330 330 328 329 332 332 331 331 329 329 328 330 334 335 335 335 334
314 313 313 313 313 313 312 312 312 314 315 313 315 315 319 317 312 317 312 322 345 351 346 347 346 346 346 343 340 338 338 336 335 335 336 336 335 336 336 337 339 336 333 331 330 333 333 332 333 335 337 337 339 340 339 339 339 338 337 335 336 338 339 339 339 338 337 337 337 336 336 335 335 334 333 333 333 332 332 331 330 329 328 328 332 332 331 331 330 330 329 330 334 334 334 334 334
314 312 313 312 312 312 312 313 314 314 314 315 315 314 319 316 312 317 313 323 346 351 347 347 346 348 346 342 339 337 337 336 335 335 335 334 335 337 336 337 338 335 333 330 326 329 330 330 331 330 330 333 336 337 336 337 338 336 335 334 336 337 338 338 338 338 337 337 337 337 336 334 334 335 334 333 334 333 332 331 330 329 328 329 331 332 331 331 331 331 331 332 333 333 333 334 334
313 312 313 312 313 312 312 314 316 315 314 316 315 315 317 314 314 317 315 331 351 351 348 348 347 349 346 342 338 336 337 335 334 335 334 334 335 337 337 338 338 334 333 331 326 328 328 330 331 327 328 332 334 335 335 335 336 335 335 335 336 336 337 337 337 337 337 337 337 337 336 333 334 336 335 334 334 334 332 330 330 329 328 329 330 330 331 330 331 332 332 332 333 332 332 334 334
313 313 313 315 315 313 314 315 316 316 315 317 315 314 317 315 317 315 316 335 350 349 350 348 348 348 345 342 338 336 336 334 335 335 334 335 335 337 337 338 338 334 333 332 332 332 331 332 331 327 329 333 334 335 335 333 333 335 336 336 336 336 336 336 336 336 336 337 337 337 336 333 335 337 336 335 335 334 332 331 331 330 330 330 330 330 330 330 330 331 331 331 332 332 331 333 334
314 313 312 314 315 315 315 314 316 316 315 317 315 313 316 318 316 313 320 339 348 348 349 348 348 348 345 342 338 337 337 335 335 334 335 335 336 337 337 339 338 336 335 335 337 337 337 337 334 330 331 333 334 335 336 334 333 334 336 337 337 336 336 336 336 336 336 337 337 337 336 334 335 336 336 335 335 333 332 332 332 331 331 331 331 331 331 330 330 330 331 331 331 331 331 333 333
315 311 313 313 311 315 316 315 316 314 313 316 315 313 314 317 315 310 319 339 348 348 347 347 349 347 345 343 339 338 337 336 336 334 335 336 336 337 336 338 338 337 336 335 337 338 338 339 337 337 335 334 335 336 337 336 334 333 336 338 338 338 338 337 337 337 337 337 337 336 336 335 335 336 336 336 335 333 332 332 333 332 332 332 331 331 332 332 331 330 330 330 331 331 332 332 333
318 311 318 320 311 313 317 316 316 313 313 315 314 314 314 316 316 309 315 336 347 347 346 346 348 348 346 344 341 340 338 336 335 335 336 336 337 337 336 338 338 337 337 336 337 337 338 339 339 339 338 337 337 338 338 337 336 334 335 338 339 339 339 338 337 337 337 336 336 335 335 335 335 335 336 336 334 333 332 333 334 333 332 332 332 331 332 333 332 331 331 331 331 332 332 332 332
326 316 318 320 311 312 315 313 314 314 314 313 313 314 315 316 317 310 314 334 347 346 346 345 347 348 346 344 342 340 339 338 336 335 335 336 336 336 336 336 337 337 337 337 337 337 337 338 339 339 338 338 338 338 338 337 338 336 335 337 338 338 338 338 338 337 337 336 336 335 335 335 335 335 336 336 334 333 333 334 333 333 333 333 333 333 333 333 332 332 332 332 332 332 332 332 331
327 322 318 317 313 312 312 313 313 312 313 314 314 314 315 316 317 313 312 328 344 346 344 344 345 348 346 344 342 340 340 339 337 335 335 336 336 336 336 335 336 336 337 337 337 337 337 337 338 338 337 337 337 338 338 337 338 337 336 336 337 338 338 337 337 337 337 337 336 336 335 335 335 335 336 336 334 334 334 334 333 333 334 334 334 333 333 333 332 333 332 332 332 332 332 331 330
321 320 318 318 315 313 312 314 314 312 313 314 314 314 315 314 314 316 316 325 339 344 344 343 342 345 346 344 341 340 341 340 337 335 335 336 336 335 335 335 335 335 336 336 336 337 337 337 337 337 336 336 337 336 336 337 337 337 336 336 337 337 337 337 337 337 336 336 336 336 336 335 335 336 335 335 335 334 334 333 333 333 335 335 334 333 333 332 332 332 332 332 332 331 331 331 330
318 315 316 316 314 313 313 313 314 313 312 313 314 313 315 314 313 319 323 327 337 342 342 343 340 343 345 343 342 340 341 340 337 335 335 335 335 335 335 334 334 335 336 335 336 337 336 337 337 336 335 336 336 335 335 336 337 337 336 336 337 337 336 337 337 336 336 336 335 335 336 335 335 335 335 335 335 334 334 332 332 333 334 335 334 333 333 332 332 332 332 332 331 331 330 330 330
314 312 314 314 311 312 314 314 315 313 312 313 314 312 314 315 314 321 325 328 337 343 344 343 340 343 345 343 341 340 340 339 336 335 335 335 335 335 334 334 334 335 335 335 336 336 336 336 336 336 335 336 336 335 336 336 336 337 336 336 336 336 336 336 337 337 336 336 335 334 335 335 334 332 332 334 333 333 332 331 330 331 333 334 333 333 332 332 332 332 332 331 330 330 330 329 329
312 312 313 312 311 313 313 313 314 313 312 313 313 312 314 314 314 321 325 323 327 334 341 342 341 342 343 343 341 340 338 336 335 335 334 335 335 334 333 333 334 335 335 336 335 335 336 336 336 336 335 335 336 336 337 336 336 336 336 336 336 336 336 336 337 336 335 334 334 335 335 335 334 332 330 330 330 330 330 329 328 328 332 334 333 332 332 332 332 332 331 330 330 330 329 329 329
314 313 313 314 314 314 315 317 318 314 312 315 314 311 314 320 323 321 319 319 321 323 329 333 338 340 341 342 340 339 339 337 336 335 334 334 334 334 333 333 334 335 335 336 336 336 336 335 335 336 335 335 336 337 337 337 336 336 336 336 335 335 335 336 336 336 335 334 334 335 335 335 334 333 332 330 329 329 328 328 327 327 331 333 333 332 332 333 332 331 331 331 330 330 329 328 329
318 316 314 316 316 314 316 322 321 315 314 317 317 318 326 336 337 325 315 320 327 327 327 328 332 337 339 341 340 339 339 338 336 336 334 333 334 334 333 333 333 334 335 335 336 336 336 335 334 334 334 335 336 336 337 337 336 336 336 336 335 335 335 335 335 335 335 334 334 335 335 335 333 333 333 333 331 329 328 329 328 328 330 332 332 331 331 333 332 331 331 331 330 329 329 328 329
321 321 316 317 318 316 316 320 322 323 322 321 322 325 328 331 330 320 315 324 331 330 332 332 332 333 335 338 340 339 338 337 336 336 335 333 334 334 333 333 334 335 335 335 335 336 336 336 334 334 334 335 336 337 337 336 336 335 335 335 335 334 334 334 334 334 334 334 334 334 334 334 333 332 333 333 331 329 330 331 328 329 331 332 332 331 331 333 332 331 331 331 331 330 329 328 329
318 322 320 316 317 318 315 318 324 326 321 317 320 321 318 323 326 320 318 328 332 332 333 334 333 332 333 336 337 337 337 336 335 335 334 333 333 334 333 333 334 336 336 335 335 336 337 336 336 336 335 335 336 337 337 336 336 335 335 334 334 333 333 333 333 333 334 334 334 334 334 334 333 332 333 333 331 331 333 332 330 331 333 332 332 331 331 332 332 332 332 331 331 330 329 328 329
315 321 325 317 316 318 315 318 320 319 317 315 319 319 315 321 329 326 324 329 333 333 333 333 332 332 332 334 334 334 335 335 335 334 333 333 333 333 333 333 334 335 335 335 335 336 337 337 337 337 337 336 337 337 337 337 335 335 335 334 334 333 333 333 332 332 332 333 334 334 333 333 333 331 332 333 332 332 332 331 331 332 332 332 332 332 332 332 332 332 332 331 331 330 329 329 329
317 324 326 318 316 316 317 321 318 318 321 320 324 325 318 317 326 329 328 331 333 333 334 333 332 331 330 332 332 333 334 334 334 334 333 333 334 333 332 333 333 333 333 334 334 335 336 337 337 338 338 338 337 337 337 336 336 335 334 334 333 333 333 332 332 331 331 332 333 333 333 333 332 330 331 332 331 331 330 329 331 331 332 332 332 332 332 332 332 332 331 331 331 330 330 329 329
320 324 319 316 316 315 320 323 321 324 321 317 325 324 315 314 325 331 330 332 335 334 334 333 332 331 330 329 330 330 331 331 332 333 332 333 333 332 331 332 332 331 332 333 334 335 335 335 336 336 336 337 337 337 337 336 336 335 334 333 333 332 332 332 331 331 331 332 333 333 333 333 332 330 331 331 329 329 329 330 331 331 332 333 333 332 332 332 332 332 332 331 331 331 330 330 329
318 317 314 318 320 320 325 323 321 325 318 317 326 323 316 320 328 333 333 333 335 334 334 333 331 330 329 329 329 328 328 327 328 328 330 331 330 330 330 331 330 330 332 333 333 334 334 334 335 334 335 335 335 336 337 336 336 336 335 334 332 331 331 332 331 330 330 331 332 333 333 332 332 330 330 329 328 328 330 331 332 332 333 333 333 332 331 332 332 332 332 331 331 331 331 330 329
314 315 314 317 323 327 334 333 327 320 317 325 330 322 323 328 330 333 334 333 333 333 333 332 330 329 329 329 329 328 328 327 326 326 327 328 328 329 329 329 329 330 332 332 331 331 332 333 335 336 335 334 332 333 334 335 336 336 336 335 333 332 332 332 331 331 331 331 332 332 332 332 332 332 330 330 329 330 331 332 332 332 332 332 333 332 331 331 331 332 332 331 331 332 331 331 330
314 319 317 315 321 326 331 333 325 316 319 329 328 323 327 331 331 332 331 330 330 330 332 330 330 329 328 328 327 326 327 326 326 326 325 326 326 327 327 326 327 328 330 330 329 327 329 331 333 333 334 333 332 333 334 335 335 334 334 333 331 330 330 330 331 331 331 331 331 331 331 331 332 332 332 331 331 331 330 331 331 332 333 332 331 331 330 330 332 332 331 331 331 332 332 331 330
316 319 320 317 319 319 321 326 323 320 321 320 319 326 335 334 333 332 329 329 328 327 328 327 327 327 326 326 325 323 323 323 322 322 323 323 324 325 325 325 325 326 327 327 326 325 326 328 329 330 331 331 332 332 332 333 332 331 331 329 328 328 328 328 330 331 330 330 330 330 330 331 331 332 332 332 331 330 330 330 331 332 333 332 330 330 330 331 332 332 331 330 330 331 332 332 331
315 317 319 319 320 318 318 321 320 320 320 315 316 328 337 336 333 331 329 328 326 325 324 324 324 324 324 323 321 321 320 320 319 319 319 319 320 321 322 323 324 325 325 325 325 325 326 327 328 328 328 327 328 328 329 331 331 330 329 327 327 328 328 330 331 330 330 329 329 329 330 330 331 331 332 331 330 330 331 331 332 332 333 332 331 330 331 331 332 332 331 330 329 331 331 332 331
314 316 317 317 324 325 321 323 321 318 319 319 321 327 331 334 333 329 328 326 324 323 322 322 321 320 320 319 318 318 317 317 317 316 317 316 317 317 318 319 320 322 323 324 326 326 325 326 327 327 327 325 325 326 327 330 330 330 328 327 328 328 329 331 331 331 331 329 328 329 329 329 330 331 331 331 330 330 330 331 332 332 332 332 331 331 331 332 331 331 331 330 329 330 330 331 332
313 314 314 315 322 328 325 324 324 325 326 323 324 328 328 331 331 327 326 326 324 323 321 321 320 319 318 317 316 316 316 315 315 314 314 314 314 314 315 316 316 318 319 320 324 326 326 326 325 326 326 326 325 325 326 328 327 328 329 328 329 329 330 332 332 332 331 330 329 329 329 330 330 331 331 330 329 329 330 331 332 332 332 331 331 332 332 331 331 330 330 329 329 330 330 330 331
317 313 315 316 316 321 322 319 319 325 325 317 322 334 331 328 331 328 325 325 323 322 320 319 319 317 316 316 315 314 314 314 313 313 313 312 313 312 312 313 313 314 315 317 320 324 326 327 326 326 325 325 325 324 324 325 326 328 329 328 328 329 329 331 332 332 332 331 330 330 330 331 331 331 331 330 329 329 330 332 332 332 332 332 332 332 331 330 330 330 330 329 329 330 330 330 330
320 314 315 315 311 318 324 322 323 325 321 316 323 336 332 327 331 329 326 325 323 322 319 317 316 315 315 314 313 313 312 312 312 311 311 311 311 311 311 311 311 311 312 314 316 319 323 325 326 326 325 324 325 324 324 325 327 329 329 327 327 328 328 330 332 332 332 331 331 331 330 331 331 331 330 330 329 330 331 332 332 332 332 333 332 331 330 330 329 329 330 329 329 330 331 331 331
318 316 316 315 315 320 320 319 323 320 318 321 325 330 331 330 331 331 329 326 323 321 318 316 315 314 313 313 312 311 310 310 310 310 310 310 310 310 310 310 310 310 311 311 313 316 319 321 322 325 325 324 325 325 325 326 327 328 329 327 326 327 326 329 331 332 332 331 330 331 331 331 331 330 330 330 330 331 332 332 332 332 332 333 332 330 330 329 328 329 330 329 329 330 331 331 331
317 322 324 324 326 324 319 318 320 318 321 327 328 328 330 330 329 330 328 324 321 319 317 316 314 313 312 312 311 310 310 309 309 309 308 309 309 308 309 309 309 309 309 310 311 312 315 317 318 320 323 325 325 325 326 326 326 327 328 328 327 327 327 328 331 331 331 331 330 330 331 331 331 330 330 330 331 332 332 332 332 332 332 332 331 330 329 329 329 329 329 329 329 329 330 331 331
325 334 330 326 324 320 318 319 318 319 327 331 331 330 329 328 326 326 324 320 318 317 315 314 313 312 311 311 310 309 309 308 308 307 307 308 308 308 308 308 308 308 308 308 309 310 311 314 314 315 318 322 324 326 326 326 327 326 327 327 326 327 328 327 329 331 331 330 330 330 330 330 331 330 330 331 332 332 332 332 332 332 332 332 331 331 330 329 329 329 329 330 329 329 330 332 331
329 335 327 323 321 318 320 320 318 324 329 328 329 331 329 325 322 319 318 317 316 315 314 313 312 311 310 310 309 308 308 307 306 306 307 307 307 307 307 307 307 307 307 307 307 308 309 310 311 312 314 317 320 324 326 326 326 326 326 326 326 327 327 327 328 330 330 329 329 329 330 330 330 331 331 331 332 332 331 331 332 331 331 331 331 331 330 330 329 329 329 330 330 329 330 331 331
Wind_Speed
3 3 3 2 2 1 2 3 1 2 2 0 3 1 4 5 2 4 7 6 0 1 2 1 3 4 4 5 7 6 4 2 3 4 2 2 8 23 22 15 24 29 25 23 22 20 17 18 18 18 18 17 17 17 19 21 21 21 22 22 23 23 23 22 23 24 24 24 24 24 25 26 26 26 26 26 25 24 24 23 22 21 20 20 19 19 18 17 17 18 17 17 17 18 18 19 20
4 3 2 2 3 2 0 3 2 3 3 2 4 4 4 3 1 5 8 6 2 3 3 4 7 8 8 8 7 5 4 4 2 3 1 7 15 19 19 17 26 29 25 24 23 21 18 18 18 19 18 17 17 16 19 20 20 21 21 22 21 22 22 21 21 23 23 23 23 24 25 25 26 26 26 26 25 24 23 22 21 21 20 20 20 19 17 17 17 17 17 16 17 16 17 19 20
3 2 1 1 3 3 1 3 2 1 3 2 5 4 3 2 5 8 9 7 6 7 4 4 6 5 6 6 4 4 1 2 3 3 3 12 13 14 18 20 27 27 24 24 23 22 20 19 18 19 18 18 17 16 19 20 20 20 21 21 20 21 21 21 21 22 22 22 23 24 25 25 25 26 25 25 25 24 23 22 21 20 20 20 20 19 17 17 16 16 16 15 15 14 15 18 18
2 2 0 1 2 3 3 3 2 4 2 4 3 5 3 4 8 8 9 6 6 6 2 3 4 2 4 6 3 4 1 0 3 4 4 8 11 17 21 23 27 24 23 23 23 21 20 21 20 19 18 18 17 16 18 19 19 20 20 20 19 20 20 21 21 21 21 22 22 24 25 24 25 25 25 24 24 23 22 21 21 20 19 19 20 19 17 17 16 15 15 14 14 15 15 16 14
2 2 0 2 3 1 2 2 2 4 3 4 2 5 5 6 7 8 8 4 4 4 1 3 2 2 3 5 2 3 1 2 4 5 6 8 16 22 23 25 26 22 21 22 22 21 20 21 21 20 19 18 17 17 18 18 18 19 20 19 19 19 20 21 20 19 20 21 22 23 23 23 23 24 24 24 23 22 21 20 20 19 17 17 18 18 17 17 16 15 15 15 16 16 15 14 13
2 3 2 3 2 1 2 1 2 2 5 5 2 6 6 6 7 7 10 5 0 2 2 2 3 2 3 3 2 3 2 4 6 5 9 15 21 24 25 26 25 22 21 22 21 21 20 21 21 20 19 18 16 17 17 18 19 18 19 19 18 19 20 20 19 19 19 21 23 22 21 21 22 23 22 22 22 21 20 19 18 17 15 16 18 18 18 17 17 17 17 17 16 15 14 13 13
3 3 2 3 1 1 4 2 4 4 5 6 5 6 7 8 5 4 10 4 3 3 4 2 4 6 3 1 2 5 4 7 8 9 16 22 24 24 26 26 25 22 21 22 21 21 20 20 21 21 19 17 17 17 17 18 19 18 18 18 18 18 19 19 18 18 17 20 23 22 20 20 21 22 21 20 21 20 18 17 17 16 15 16 18 17 18 18 19 18 17 16 15 14 13 14 14
3 2 1 3 1 2 4 2 3 4 4 4 5 7 10 10 6 4 7 3 1 1 4 2 3 6 1 3 2 7 10 12 13 18 24 25 25 24 25 26 25 21 20 21 21 21 20 20 21 20 19 17 17 18 17 17 18 17 17 18 18 18 19 19 18 17 17 19 22 22 20 19 20 21 20 20 20 18 17 17 17 15 14 15 16 17 18 18 18 18 17 16 14 13 13 14 14
2 2 1 3 1 1 1 2 4 3 5 6 6 9 11 11 7 5 7 3 1 2 4 1 2 5 2 6 4 4 10 18 22 25 26 26 26 25 25 26 25 23 21 22 22 22 20 20 20 19 19 17 17 18 17 17 17 17 17 17 17 18 18 18 18 18 17 18 21 21 19 17 18 20 20 19 18 17 17 17 16 15 14 14 15 16 17 18 18 17 16 15 13 13 13 13 14
3 2 2 2 2 0 3 2 3 3 5 7 7 10 11 9 5 3 5 2 1 2 3 3 6 6 5 6 4 3 8 22 28 24 24 26 25 26 26 25 25 25 23 22 23 22 20 20 19 19 18 18 17 17 17 16 16 17 17 16 16 17 18 17 18 17 17 18 21 21 19 18 18 19 19 18 17 16 16 16 15 14 13 12 13 15 17 18 18 17 15 14 13 13 12 12 14
3 2 3 3 3 1 3 3 4 4 6 5 8 12 11 7 3 2 2 2 3 2 2 4 6 5 7 4 3 5 12 22 27 24 23 25 25 25 26 24 24 24 23 22 22 20 19 18 18 18 19 19 18 18 17 16 16 17 17 16 16 17 18 17 17 17 17 18 20 21 20 18 18 19 18 17 17 15 15 15 14 14 13 12 11 13 17 19 18 17 15 14 14 13 12 11 13
2 1 4 4 2 3 3 3 5 6 7 5 6 9 5 5 3 3 4 4 2 2 2 1 5 4 6 3 2 8 13 16 23 27 24 24 24 24 24 23 22 23 23 22 21 20 19 18 18 18 19 20 19 19 18 16 16 17 17 16 16 17 18 18 17 17 17 18 20 22 20 19 19 18 17 16 16 15 15 14 13 14 13 12 11 12 16 20 19 17 15 14 14 12 11 11 12
3 2 5 2 3 3 3 3 5 6 7 4 5 5 2 2 3 6 5 4 3 2 2 3 8 5 5 2 3 7 8 14 24 26 24 24 23 22 22 21 21 22 22 22 20 19 19 18 18 19 19 20 20 19 18 16 16 17 16 15 16 17 18 18 17 17 17 18 20 21 20 19 19 18 16 15 14 14 14 13 12 13 13 12 12 12 15 20 20 17 16 15 14 13 11 11 12
2 2 4 1 1 2 3 2 4 3 5 5 4 4 1 2 2 5 7 6 1 1 2 5 8 8 6 3 4 3 6 18 25 24 23 24 23 22 21 20 21 23 23 22 21 20 19 19 19 19 19 21 20 19 18 17 17 16 16 15 16 17 19 18 17 17 17 18 19 20 20 20 19 17 16 15 13 13 13 12 12 13 13 13 12 12 15 20 21 18 17 16 15 14 13 13 13
4 1 4 2 1 1 2 3 3 3 4 6 3 5 3 3 3 2 3 6 2 1 3 4 3 4 5 7 6 7 11 20 25 25 25 25 23 22 21 20 20 21 21 22 21 21 20 19 19 19 20 21 21 20 19 18 17 16 16 16 16 17 19 18 17 17 18 18 19 19 19 19 17 16 15 14 13 13 12 11 12 13 13 13 12 13 15 20 21 19 18 16 16 16 14 14 14
3 2 4 2 1 1 3 3 2 1 5 6 4 4 3 2 3 2 3 4 5 3 3 1 2 2 7 8 10 16 18 21 25 27 27 25 23 20 18 19 18 17 18 20 21 20 20 20 19 20 21 22 21 20 19 18 18 16 16 16 16 17 19 18 17 17 17 17 17 18 17 17 16 14 14 13 13 13 11 11 11 12 12 13 12 13 16 19 21 20 19 17 17 17 15 14 14
2 4 3 1 2 2 3 3 2 1 5 7 5 3 5 4 4 1 3 6 7 5 5 3 3 2 6 8 15 24 23 24 27 28 26 24 22 20 17 17 17 16 16 17 20 20 20 21 21 22 22 22 21 20 19 18 17 16 16 16 15 17 18 18 18 17 16 15 16 16 17 17 16 14 14 13 14 13 11 11 11 11 12 12 12 12 15 19 21 21 19 17 17 16 16 15 14
2 3 2 1 3 4 4 5 4 1 4 6 5 3 6 3 3 2 4 7 5 6 6 4 5 5 3 10 22 25 24 26 26 24 22 19 19 17 12 10 12 15 17 16 17 19 21 22 21 22 21 21 21 20 19 18 17 15 15 15 15 16 17 17 17 16 15 15 15 16 17 17 16 15 14 14 14 13 11 11 10 10 11 12 12 11 13 18 21 21 18 17 16 15 15 15 14
3 3 2 3 4 5 5 5 5 1 4 7 5 5 4 3 2 2 2 0 3 6 4 4 7 6 7 14 22 23 24 24 20 20 19 16 16 15 10 7 9 13 16 15 14 17 20 20 19 19 20 20 20 19 18 17 16 15 15 15 14 15 16 17 17 17 16 15 15 15 16 16 15 15 15 15 14 13 12 11 10 10 10 12 13 12 12 16 21 21 18 16 15 14 13 13 13
2 3 2 5 5 5 6 6 8 7 5 5 4 5 5 1 2 2 3 3 2 4 3 3 4 5 8 11 16 21 22 20 18 20 18 17 18 18 16 18 17 15 16 16 15 16 18 17 17 18 19 20 20 19 18 17 16 15 15 15 15 16 16 17 17 17 17 15 14 14 15 16 15 14 14 14 13 13 12 10 10 10 10 12 13 13 12 14 20 22 19 16 15 13 11 11 11
2 3 4 5 4 4 9 7 8 8 5 4 1 4 5 2 2 2 5 4 2 4 5 6 9 10 11 11 12 18 18 16 17 17 16 18 19 19 21 24 22 17 16 16 17 17 17 17 17 18 19 20 20 20 19 18 17 17 16 16 16 17 17 17 17 17 17 16 15 14 14 14 14 13 14 14 13 13 12 11 10 10 10 12 14 15 14 14 18 21 19 16 14 11 10 10 9
2 4 4 4 2 4 8 4 7 8 5 5 2 3 1 2 2 4 7 6 4 5 6 9 13 14 15 14 13 14 14 13 13 15 16 16 17 17 18 21 21 18 17 18 20 19 18 17 17 18 19 20 20 20 20 18 17 17 17 17 17 17 16 16 17 17 18 16 15 15 15 14 13 13 14 14 14 13 12 12 11 10 10 12 14 16 16 16 17 20 18 15 13 10 9 8 8
3 5 3 5 5 6 6 2 7 7 3 6 3 1 1 3 3 4 7 6 6 4 8 11 11 12 15 15 14 14 13 12 12 16 19 19 19 20 19 18 19 18 17 19 21 20 18 17 17 18 19 19 19 19 20 18 17 18 18 17 18 18 16 16 17 18 18 18 16 16 15 15 14 14 14 14 14 13 12 11 11 10 10 13 15 16 17 17 17 19 18 15 12 9 8 8 8
4 4 4 6 7 8 8 6 8 6 4 7 1 1 2 1 3 1 2 4 3 3 9 11 9 10 14 14 13 13 12 12 13 18 24 26 25 25 21 17 19 21 20 20 21 21 20 19 19 18 19 20 19 19 19 19 18 18 18 17 18 18 17 17 17 18 19 19 18 17 16 15 15 15 15 15 15 14 12 11 10 10 10 13 15 16 17 18 18 18 18 14 11 8 7 7 7
4 5 5 5 6 9 10 9 10 7 6 6 0 1 5 6 2 2 4 1 4 6 9 12 11 10 12 13 13 12 12 12 13 17 21 23 23 22 20 18 21 25 24 23 22 22 22 22 21 20 20 20 19 19 18 19 19 19 19 18 18 19 18 18 18 19 19 19 19 19 17 16 16 16 15 15 15 14 13 12 11 11 11 14 16 16 16 17 18 18 17 14 10 8 6 6 6
6 7 6 5 7 9 7 7 9 9 6 1 0 5 8 6 2 3 7 2 7 8 11 12 12 11 10 11 12 12 13 13 13 16 18 19 20 20 20 18 20 26 26 25 25 24 24 24 24 23 21 20 20 20 19 19 20 21 21 21 20 20 20 19 19 20 19 19 20 20 19 17 18 18 17 16 15 15 14 13 12 12 13 15 16 16 16 16 17 17 16 14 11 9 7 7 7
5 6 6 7 10 9 5 7 9 7 5 4 6 8 8 4 0 3 5 3 9 10 10 10 11 11 11 10 10 11 12 14 16 18 16 16 19 21 22 19 22 27 27 27 28 26 25 24 24 24 23 22 22 21 20 21 22 22 22 23 22 22 21 21 21 21 20 20 20 20 20 19 19 19 19 18 16 16 15 14 13 13 14 17 16 16 15 15 16 16 15 13 12 10 9 8 8
4 3 5 7 7 6 4 7 7 3 2 6 8 6 6 3 1 5 3 6 10 12 11 9 10 9 10 10 9 8 9 14 19 18 16 18 22 24 25 25 27 30 29 30 30 28 27 25 23 23 22 22 22 21 21 22 23 23 23 23 24 23 22 22 22 22 21 20 20 21 21 20 20 20 20 19 18 17 16 15 14 14 15 16 16 15 15 15 15 15 13 12 12 11 9 8 9
3 1 3 7 5 5 5 5 5 4 2 6 7 3 7 3 5 5 2 7 8 12 12 9 9 8 9 9 8 7 8 13 16 17 20 23 26 28 29 30 32 33 32 30 29 28 28 26 25 25 24 24 23 23 23 23 24 24 24 24 24 23 23 23 23 22 21 20 20 21 21 21 21 21 21 21 19 18 18 17 15 15 15 15 15 15 15 15 15 14 13 12 12 11 10 10 11
3 1 1 4 6 5 6 2 3 5 3 4 5 3 6 8 8 4 2 7 9 9 10 9 8 7 8 8 8 8 8 11 13 16 22 24 26 29 30 32 34 33 30 26 26 27 26 26 27 27 27 26 25 26 26 24 24 24 24 24 24 24 23 23 23 22 21 21 21 21 21 21 21 21 22 22 21 20 20 19 17 15 15 15 14 14 14 14 15 15 14 13 12 12 11 12 13
2 2 1 1 1 4 8 2 4 4 2 2 6 1 7 11 8 2 4 7 11 10 9 8 8 7 7 7 8 8 8 10 13 17 22 25 27 29 29 32 33 29 26 25 26 27 26 27 28 29 28 27 27 28 27 25 23 25 24 23 24 24 23 24 23 22 22 21 22 22 21 21 22 22 23 24 23 22 22 21 19 16 15 14 14 14 13 13 15 16 15 15 14 13 14 14 15
3 1 2 3 2 4 8 4 4 5 2 2 6 2 6 10 8 2 5 7 10 10 9 9 10 9 8 7 7 8 8 9 12 16 21 25 28 28 27 30 30 27 25 26 26 26 27 29 29 30 28 28 29 28 26 25 23 24 25 23 22 23 23 23 23 22 22 22 22 23 23 23 23 23 24 25 24 23 23 22 18 15 15 15 14 14 13 13 15 15 14 14 14 15 16 16 16
4 2 2 3 0 2 5 5 2 5 2 2 3 3 4 6 6 2 3 7 9 9 9 10 10 10 9 7 7 8 8 8 9 14 21 26 27 26 25 27 28 25 25 26 26 26 27 29 30 31 28 29 30 27 25 24 22 23 25 24 22 22 23 23 22 22 22 22 23 23 24 24 25 24 24 25 25 24 23 21 17 15 16 16 15 15 13 12 14 15 14 14 15 16 18 18 17
4 2 0 2 1 1 2 4 5 1 2 2 2 3 6 9 6 4 2 5 9 9 9 8 8 8 8 7 7 9 9 10 10 15 23 26 24 22 22 25 26 25 25 27 27 27 28 29 31 32 28 26 26 25 24 23 21 22 24 24 22 22 23 23 23 23 23 23 24 25 25 25 27 26 26 27 27 26 23 20 18 16 17 17 16 16 14 12 14 15 16 16 16 17 19 19 17
2 1 2 2 3 1 2 3 3 2 1 4 3 4 10 12 9 6 5 2 8 8 7 7 7 6 7 7 8 9 10 11 11 16 22 22 19 18 20 24 26 25 26 26 27 27 28 29 30 31 27 23 23 23 22 20 20 21 23 23 22 22 23 23 24 24 25 25 25 26 26 27 27 26 27 28 28 27 23 21 20 17 15 16 16 14 14 14 15 16 17 17 18 17 18 19 18
6 3 3 1 3 3 4 4 5 2 1 5 6 7 10 12 9 6 6 4 4 7 7 7 6 5 6 6 7 9 11 11 10 14 18 17 16 18 21 24 26 26 26 26 26 28 30 30 30 30 27 24 23 21 20 20 20 22 23 23 23 23 23 23 25 25 24 24 24 26 27 27 27 26 27 29 28 27 25 23 22 19 15 15 16 15 15 15 15 17 17 18 19 17 17 18 18
5 1 1 1 2 4 5 5 6 2 3 7 9 9 10 10 6 5 6 6 1 5 8 8 7 7 7 8 8 10 10 8 7 12 16 16 15 18 21 24 25 25 25 25 26 29 32 31 31 31 29 26 26 25 23 23 24 24 24 25 25 25 25 24 23 24 23 23 23 24 26 26 25 24 26 28 26 24 25 25 22 19 17 16 16 16 15 14 14 17 17 18 18 18 18 17 18
2 0 1 3 1 4 6 5 7 2 5 5 4 7 11 10 2 5 7 7 6 3 3 6 6 7 6 8 9 9 7 4 5 9 13 15 15 18 22 23 26 27 27 27 28 31 33 33 34 34 31 29 29 29 28 28 29 29 27 26 26 25 25 25 23 23 23 22 22 22 24 24 22 20 22 24 23 19 20 22 22 19 18 18 16 15 16 15 16 18 19 17 17 18 18 19 21
2 1 1 2 2 4 6 5 6 1 3 4 2 7 9 9 2 5 5 5 6 8 5 3 0 3 2 5 7 6 5 4 6 8 10 14 16 18 21 23 27 29 28 28 30 30 30 31 33 32 31 31 32 32 32 32 32 30 27 26 26 24 24 24 23 22 22 21 21 22 22 22 20 19 19 18 18 18 18 20 21 20 19 18 16 16 17 18 19 20 20 18 17 17 17 20 23
2 3 3 1 2 2 3 4 6 4 1 2 5 5 4 7 4 6 6 5 9 11 10 10 7 4 1 5 6 5 7 7 8 9 9 12 15 18 19 19 20 20 19 20 23 23 21 23 24 23 23 26 30 32 33 31 29 28 26 25 24 23 22 22 22 21 21 21 20 21 21 21 20 19 19 16 16 20 21 19 20 20 19 19 18 18 19 20 21 19 19 19 20 19 16 19 22
2 5 5 3 3 3 3 4 5 5 5 2 7 3 3 5 6 6 6 8 13 13 14 16 12 7 3 2 5 6 8 8 9 10 9 10 12 14 13 10 8 7 7 10 15 17 18 19 22 21 20 21 24 27 30 29 27 26 25 21 19 19 18 18 20 20 21 21 20 21 21 21 20 20 20 18 18 21 21 19 20 20 19 20 19 19 20 20 20 19 18 19 22 21 18 21 21
3 5 7 7 6 5 3 3 4 5 5 3 6 4 1 3 7 7 7 9 13 13 15 16 14 13 11 6 1 3 4 3 6 6 4 3 4 5 5 3 2 1 1 3 10 15 16 18 21 24 23 24 24 24 25 26 26 25 24 22 20 19 19 20 23 23 23 22 21 21 20 19 20 21 20 19 20 22 20 19 19 18 18 20 19 19 20 21 20 18 18 20 23 22 20 22 21
1 6 7 8 6 4 3 2 4 3 1 2 4 6 3 4 7 8 8 8 11 14 16 16 13 13 12 10 7 3 3 2 1 2 2 3 3 2 1 1 2 1 1 3 6 12 16 17 18 22 23 24 25 24 23 22 21 22 23 24 23 23 22 23 24 24 23 23 21 20 19 18 19 20 21 21 22 22 19 18 17 17 18 18 17 18 19 20 20 18 19 21 23 22 21 23 23
3 7 5 7 7 7 5 5 4 2 3 3 4 4 4 3 4 7 8 6 11 15 16 15 14 14 13 13 12 9 6 4 2 1 3 5 6 6 4 1 2 2 2 3 5 8 15 17 16 18 21 23 23 23 24 23 20 20 21 22 22 23 23 23 23 22 22 21 20 20 19 19 18 19 22 23 22 21 19 18 17 17 18 17 17 18 19 18 19 18 19 21 22 23 22 23 25
7 8 5 7 7 7 6 6 4 1 2 2 7 3 5 2 5 6 8 7 11 13 13 14 14 14 15 14 14 13 10 8 6 4 4 5 6 8 6 4 2 4 4 5 6 7 10 13 12 12 15 17 18 19 22 25 23 20 19 20 20 20 21 20 20 20 20 20 20 20 20 20 18 19 22 23 22 20 18 18 18 18 18 18 18 18 18 18 18 18 19 21 23 23 23 23 25
7 4 5 4 4 4 5 5 4 3 3 4 7 2 5 2 5 6 6 6 9 10 9 11 12 13 14 15 15 14 12 11 10 9 8 8 7 7 6 4 0 4 7 11 11 9 10 11 11 12 13 14 17 19 20 22 22 20 19 19 20 19 19 18 18 17 18 19 20 20 21 21 20 21 22 22 21 19 18 18 19 19 17 18 20 20 19 19 18 18 19 21 22 23 24 24 25
3 5 5 6 5 5 4 3 4 3 0 6 7 1 5 1 3 4 4 5 7 7 7 9 12 13 14 13 13 12 11 10 11 11 11 13 12 8 6 4 3 5 11 16 14 10 11 13 15 18 18 16 18 21 20 22 24 24 23 21 20 20 20 19 18 17 17 18 19 20 20 21 21 22 22 22 21 19 19 20 20 18 17 17 20 21 20 19 18 18 19 21 23 23 24 25 25
5 5 4 4 2 4 4 4 3 3 3 6 5 2 6 2 1 2 5 7 8 8 8 10 11 12 12 12 11 11 10 10 10 10 10 12 14 13 11 10 8 5 11 17 17 16 15 15 19 21 20 16 18 20 20 22 24 24 21 18 15 16 18 20 19 19 18 18 19 20 20 20 21 22 22 22 21 20 20 21 20 18 17 18 20 20 20 19 18 18 19 21 24 25 25 25 26
5 4 5 5 1 2 1 2 1 3 3 3 4 3 6 2 1 4 6 8 9 9 9 10 11 11 12 12 12 10 10 11 11 10 10 10 11 13 15 15 14 11 12 16 19 19 16 13 15 17 14 10 13 15 15 18 22 22 18 14 12 13 16 20 20 20 20 20 20 20 20 21 21 21 23 23 23 21 21 21 20 19 18 19 19 19 19 19 19 19 19 21 24 26 26 25 26
5 5 5 4 3 3 2 3 0 2 3 2 3 1 3 1 2 5 7 9 9 9 9 10 11 11 12 12 13 11 11 11 10 9 10 10 11 14 17 17 17 18 19 20 20 19 15 11 12 13 12 11 10 10 11 13 20 22 18 16 17 17 17 20 21 21 21 20 20 21 21 22 23 23 24 25 24 22 22 21 20 20 20 19 19 20 20 20 20 20 20 21 23 25 26 25 25
3 5 6 5 5 4 3 3 3 3 2 2 3 2 2 2 3 6 7 8 9 9 9 10 11 11 10 11 12 11 11 11 9 10 10 11 15 17 17 18 19 20 22 22 20 17 13 11 11 14 13 11 11 11 10 10 16 15 11 12 16 18 19 20 21 21 20 20 20 21 22 22 24 25 25 25 24 23 23 22 21 21 21 20 20 21 22 21 21 21 21 21 22 24 25 25 24
1 2 6 3 6 6 3 3 5 5 2 2 3 2 2 2 6 8 7 8 9 9 10 11 11 11 11 11 11 10 10 10 9 10 10 12 16 18 18 19 20 21 22 21 20 16 13 11 11 12 13 10 7 5 4 8 12 12 13 15 17 19 21 21 20 20 20 20 20 21 21 22 23 25 26 26 25 24 24 22 22 21 20 19 20 21 22 22 21 21 21 21 21 22 24 25 24
0 2 4 3 4 7 5 2 1 3 4 1 2 3 3 2 5 6 8 9 9 9 10 11 11 12 12 10 10 10 9 9 9 9 10 12 15 17 18 19 20 22 22 22 22 20 16 13 11 13 13 11 10 8 8 11 14 17 21 22 21 23 23 21 19 19 18 19 19 19 20 21 22 24 25 26 26 25 24 22 21 21 19 18 19 20 21 21 20 20 21 21 21 22 22 22 23
4 2 5 2 3 5 4 2 2 3 4 0 2 2 3 1 0 3 8 9 8 9 10 10 11 12 11 10 10 11 11 10 10 10 11 13 16 17 18 19 20 22 23 24 25 22 19 17 15 15 14 10 7 9 11 15 18 23 26 25 23 23 20 18 17 16 16 17 19 20 20 20 22 24 26 26 27 26 24 22 21 20 20 19 18 19 21 21 20 21 21 20 20 21 20 19 21
5 4 3 4 3 1 1 2 1 2 3 1 3 2 2 2 2 1 6 8 8 8 9 9 10 10 9 9 10 11 11 10 10 11 11 13 16 18 18 19 22 24 24 24 24 23 21 20 19 17 14 11 9 8 11 15 18 23 26 25 23 21 20 19 18 16 15 16 18 20 20 21 21 23 26 27 27 25 24 23 22 20 20 19 18 19 20 21 21 21 21 20 20 19 19 19 20
4 3 3 2 3 4 2 2 3 4 3 2 1 2 0 1 3 1 7 8 8 8 7 8 9 9 8 7 8 9 10 9 10 10 10 13 16 19 19 20 22 25 25 24 24 24 24 23 22 20 16 12 11 12 14 15 15 18 23 23 21 20 22 23 21 18 17 16 17 19 20 21 21 23 25 26 26 25 23 22 21 20 19 19 19 19 19 20 20 21 20 20 19 18 18 19 19
2 4 4 3 2 2 2 1 2 3 4 4 3 1 2 1 3 5 8 8 7 8 7 7 7 7 7 7 7 7 8 8 10 9 10 13 17 19 19 20 21 24 27 28 26 25 26 27 26 24 21 16 13 12 14 16 15 15 17 20 20 20 21 22 20 19 18 18 18 18 19 21 22 23 24 26 25 23 21 20 19 18 18 18 20 19 18 18 19 19 19 19 19 18 18 18 18
4 3 2 1 1 3 4 1 1 2 3 4 5 3 1 2 5 6 8 7 7 8 7 6 7 7 7 7 7 8 8 8 9 9 10 13 16 18 19 20 21 22 25 26 25 26 28 30 29 27 24 21 17 14 12 13 13 14 17 18 20 21 20 20 19 18 17 18 19 19 19 21 23 24 24 25 25 23 21 20 19 17 17 17 18 18 17 18 18 18 18 19 19 18 18 18 17
Wind_Direction
53 67 52 27 355 39 30 62 84 326 93 292 272 222 259 232 236 285 292 287 55 44 271 360 36 61 96 115 133 128 86 119 155 143 206 253 157 164 168 171 166 162 155 154 157 156 156 156 157 157 153 153 151 150 149 144 139 136 134 132 130 127 125 123 123 121 121 120 119 118 116 116 114 113 112 111 110 109 108 108 109 108 110 110 110 111 107 103 99 96 94 91 91 92 92 94 94
82 93 48 31 8 55 222 71 99 329 56 316 278 183 258 292 258 245 243 251 163 165 190 97 80 77 84 100 108 86 43 12 93 130 88 128 137 157 168 172 168 162 154 153 154 154 155 157 158 156 155 156 154 152 151 147 142 138 136 133 129 127 124 121 122 123 123 122 120 119 119 119 117 116 114 113 112 109 108 108 109 109 108 111 114 115 110 106 102 100 97 94 94 92 92 98 97
92 141 32 55 34 50 75 43 91 44 84 242 273 227 265 303 231 230 232 227 172 162 158 90 79 77 74 72 52 56 57 350 71 95 110 137 137 154 167 169 167 161 153 152 153 154 155 156 157 156 157 158 157 154 153 150 146 141 138 132 127 126 123 123 124 125 125 123 122 122 122 121 120 118 116 115 113 111 110 110 111 108 104 106 112 115 113 108 105 102 100 98 97 95 96 101 97
110 157 359 82 51 28 63 50 126 119 135 221 263 257 241 229 238 246 246 227 180 167 119 59 52 5 69 84 67 66 119 359 89 120 128 151 149 154 162 164 162 157 151 152 153 155 154 155 157 158 158 159 159 155 153 152 147 143 139 132 126 126 126 127 127 127 127 125 123 125 124 123 122 120 120 117 115 113 114 114 111 109 107 108 112 116 115 110 109 106 103 103 104 106 105 101 89
129 141 87 83 85 23 96 84 110 124 204 197 213 260 233 221 246 270 268 250 209 204 130 107 80 332 70 90 108 98 134 113 113 132 109 134 149 153 158 158 157 151 149 153 154 154 154 156 158 160 158 159 161 155 153 151 145 141 138 133 128 130 131 131 130 129 129 126 126 127 126 125 125 123 122 119 118 120 121 117 114 114 114 114 117 120 119 115 115 114 113 115 116 114 108 96 81
136 117 73 56 94 173 105 104 157 210 232 178 199 263 248 237 245 279 290 302 181 155 91 93 123 112 76 46 72 98 171 141 122 129 123 137 150 153 154 154 153 149 149 152 153 152 154 158 159 160 158 159 160 154 151 150 146 140 138 138 135 137 136 134 132 132 130 128 129 129 128 128 127 126 124 124 126 128 126 118 116 117 113 115 120 124 125 126 126 125 125 123 121 115 105 90 80
152 116 36 54 48 36 100 163 198 235 244 182 200 258 262 263 256 307 301 303 67 70 58 77 123 106 85 29 75 24 39 134 132 138 140 143 149 152 152 153 151 146 148 152 152 152 156 160 160 160 160 160 158 153 151 151 150 144 143 144 142 142 140 137 135 134 132 130 133 132 130 132 130 129 127 130 130 128 124 118 116 114 109 113 120 126 129 132 133 131 130 126 121 113 102 89 82
151 133 27 97 50 14 106 202 228 217 250 223 227 260 268 272 274 305 295 291 119 338 89 150 95 85 18 14 77 12 47 112 132 138 140 141 145 149 153 155 149 143 147 152 151 151 157 160 160 161 160 162 160 155 155 154 156 152 150 148 145 146 143 140 137 135 133 133 138 135 132 134 134 132 131 132 129 124 123 121 117 113 108 109 117 126 132 136 136 135 132 127 120 111 100 88 88
94 71 88 98 110 19 74 265 261 235 261 265 256 260 265 273 280 270 272 307 148 143 100 194 33 94 98 43 74 14 58 110 125 131 136 140 146 151 156 158 153 146 146 150 150 153 160 161 159 161 160 162 163 159 159 158 161 160 155 150 146 147 145 143 139 136 135 137 142 138 134 136 137 135 134 132 127 126 128 124 119 115 110 107 113 126 135 139 140 139 134 128 119 109 98 88 95
32 31 128 87 107 33 309 268 262 258 254 262 264 258 258 267 275 222 227 277 46 105 94 62 56 96 108 65 58 19 97 120 121 126 136 143 150 157 159 159 157 148 145 148 151 156 160 160 156 158 159 159 162 163 164 164 164 163 158 152 148 148 149 147 143 141 139 141 144 141 139 138 139 137 134 131 129 132 130 125 120 115 109 105 111 125 138 143 144 143 136 128 118 106 95 90 103
29 343 102 80 84 180 256 253 270 264 262 280 277 264 253 247 218 173 140 100 38 88 166 65 73 97 91 74 46 87 118 122 124 133 143 148 155 160 158 155 153 145 142 147 152 155 157 158 156 157 160 159 163 167 169 169 167 165 161 156 152 153 154 153 151 150 145 144 146 145 143 140 139 137 134 133 134 135 130 126 122 115 110 106 111 124 138 146 149 146 138 127 115 103 92 92 107
96 300 72 95 142 187 208 234 269 275 283 280 266 269 235 207 164 131 96 97 76 96 254 98 135 140 81 65 82 100 107 122 136 143 149 152 154 154 150 146 144 142 141 147 150 152 156 155 155 160 161 163 167 172 174 174 171 167 164 161 158 158 159 159 158 156 152 150 149 149 147 143 141 139 137 139 139 137 133 130 125 117 113 111 114 123 137 148 152 149 139 125 114 99 89 90 102
133 168 90 129 183 165 202 233 273 297 299 261 238 269 184 163 136 141 118 96 103 135 269 137 143 122 83 103 119 104 109 146 150 147 148 146 145 142 139 139 139 143 144 148 149 151 155 153 157 163 164 167 171 173 175 176 175 170 165 165 164 163 163 162 160 160 159 156 153 152 150 145 143 143 143 144 142 138 137 133 124 117 115 117 117 122 137 148 153 150 138 125 111 94 85 88 97
166 169 116 170 180 139 211 245 281 288 285 266 251 290 10 68 152 152 120 96 41 190 145 125 128 99 103 138 118 130 167 163 151 143 141 136 138 137 136 140 142 146 147 149 150 152 155 155 160 164 167 171 173 173 175 177 176 170 168 170 168 168 167 165 164 163 162 159 154 154 154 149 146 149 150 149 145 140 139 134 121 116 118 120 120 124 138 149 153 148 136 126 110 94 88 92 101
184 153 99 113 360 322 223 216 240 205 257 269 274 316 21 81 130 126 108 113 44 19 104 109 111 86 142 161 161 186 179 157 145 141 139 133 134 135 136 139 141 143 145 149 149 151 154 158 162 165 171 172 173 175 176 177 176 173 174 175 172 172 173 170 168 164 161 160 156 157 157 153 151 155 156 154 150 144 141 134 121 118 120 123 124 128 140 150 152 146 137 128 111 99 94 99 109
175 98 74 75 261 253 221 211 223 196 261 259 281 336 44 17 80 101 292 127 111 66 62 26 337 80 148 173 179 167 158 146 141 140 134 127 123 123 127 130 135 138 143 150 150 152 155 160 165 169 173 174 176 178 177 178 177 178 178 177 174 174 175 172 169 164 159 157 157 158 158 158 160 161 159 158 157 151 142 134 124 120 122 125 129 131 142 152 151 146 140 130 117 105 100 105 118
98 83 63 356 215 215 212 206 183 138 274 271 310 4 94 356 4 103 339 63 103 90 54 6 343 93 155 181 160 146 142 138 137 134 125 120 118 117 122 129 136 142 148 154 153 154 159 165 170 173 174 176 179 179 178 179 179 182 181 179 176 175 175 172 168 162 157 155 158 161 163 165 167 165 161 160 160 153 144 135 128 123 123 128 134 134 143 154 153 149 144 133 123 113 105 108 122
84 97 126 231 207 213 200 201 210 146 280 278 314 1 97 52 345 56 28 46 75 72 49 29 28 35 93 132 132 131 133 132 132 127 119 114 111 106 104 122 139 150 156 161 160 159 165 171 173 173 173 177 180 180 180 180 181 184 184 181 177 176 173 170 166 163 162 161 164 168 171 171 169 167 165 163 159 153 148 142 135 129 127 133 140 140 144 156 158 153 149 140 131 122 112 110 117
140 121 161 225 205 220 214 217 262 274 260 275 308 334 59 97 202 86 71 301 78 77 48 47 65 56 76 109 116 120 126 125 123 118 111 104 102 97 91 130 163 168 166 163 165 166 170 172 172 172 172 178 181 182 183 182 183 184 186 184 178 175 173 172 169 168 170 169 171 171 175 177 172 169 169 167 160 155 155 152 146 137 135 140 146 150 149 157 163 160 156 148 140 131 120 112 111
171 132 185 238 211 243 260 246 270 274 266 277 300 334 11 95 182 103 159 171 86 126 149 91 112 130 118 119 116 119 120 115 119 118 111 108 113 125 143 167 177 180 174 165 168 172 173 171 171 175 177 181 184 185 185 184 186 188 190 187 180 179 179 179 175 175 176 175 177 173 175 179 175 172 172 170 165 161 161 161 159 150 146 151 154 158 156 157 165 166 162 154 146 138 123 110 103
180 168 195 239 196 241 269 257 268 282 292 266 218 19 354 328 87 109 135 115 317 241 200 176 167 158 143 141 124 121 117 110 121 123 116 118 131 152 166 173 173 176 176 169 171 175 176 174 175 181 184 186 187 187 187 187 189 191 194 193 188 186 186 184 182 183 183 182 182 179 179 179 177 176 175 175 172 171 171 172 173 167 160 161 161 162 162 157 162 168 165 156 149 141 124 109 100
182 231 218 238 194 239 266 265 261 270 286 278 311 42 306 323 68 130 129 133 238 239 192 181 168 161 153 143 129 126 124 117 124 123 120 125 141 166 177 172 167 172 178 174 175 178 178 177 180 187 190 190 191 191 190 189 192 194 196 197 194 192 192 191 190 190 190 190 187 185 184 180 180 182 183 182 180 181 182 183 185 184 175 171 169 167 166 162 160 166 165 157 152 143 124 111 98
208 270 248 227 216 234 271 293 257 264 250 255 291 307 234 11 339 170 152 179 238 219 163 163 158 154 145 133 132 137 132 128 131 132 136 142 158 176 182 173 163 169 179 180 179 180 180 179 185 193 194 193 194 196 195 192 194 199 201 201 199 197 197 198 196 194 193 195 193 191 189 184 186 191 192 190 189 191 192 193 194 195 187 178 176 171 169 166 163 167 166 160 156 146 124 112 101
205 263 274 248 226 229 255 255 263 284 243 238 217 23 322 305 292 285 193 219 235 182 144 136 131 132 132 128 134 139 131 128 133 141 149 158 170 179 179 174 167 170 180 185 184 183 183 182 187 195 197 197 198 200 199 197 200 205 206 205 204 203 203 201 198 195 195 197 197 196 193 191 193 197 199 197 196 196 198 201 199 200 194 184 182 177 172 171 169 170 170 164 160 152 129 118 112
214 238 261 262 243 237 245 245 259 269 258 272 342 268 250 214 202 323 273 201 120 138 128 118 119 126 132 132 135 134 129 129 132 144 156 164 171 177 177 176 174 175 181 186 186 186 187 187 190 196 199 200 202 201 200 200 205 208 208 206 205 207 208 205 201 198 197 197 199 199 197 198 200 202 203 202 201 198 198 203 201 203 199 189 187 182 175 174 173 175 175 170 164 160 146 136 137
218 219 249 263 261 253 241 238 247 242 242 289 201 260 262 240 172 276 272 183 131 127 122 121 126 135 137 135 139 138 136 137 141 150 159 163 167 177 181 181 180 181 184 186 188 189 190 191 193 196 199 204 207 204 204 204 206 208 209 208 207 209 210 207 205 203 201 200 200 201 202 204 207 208 207 206 206 201 198 199 201 203 198 190 189 187 180 176 176 179 179 175 171 168 167 161 157
211 209 248 248 256 263 226 222 235 225 227 182 186 244 268 291 133 253 285 153 139 119 118 128 134 144 142 138 141 140 140 144 151 153 155 160 169 182 185 184 186 187 189 189 191 191 191 193 194 195 197 205 210 209 209 210 210 210 210 211 210 210 210 208 208 207 205 203 203 202 204 206 210 212 212 210 208 204 198 195 198 197 191 187 187 188 185 178 176 180 179 177 177 178 183 180 171
244 237 288 266 269 286 221 210 229 197 223 191 174 240 284 341 201 226 228 150 140 128 133 140 144 153 143 138 139 140 145 150 155 157 162 172 178 184 186 190 190 190 193 192 192 193 192 193 194 195 197 202 210 213 213 214 214 213 212 213 213 213 211 209 209 209 208 206 205 204 204 205 208 214 215 213 210 203 195 192 193 188 184 183 183 186 187 183 180 181 179 181 188 192 199 196 186
276 253 309 293 343 334 244 215 221 175 197 190 151 317 308 276 235 255 215 160 142 133 142 146 153 158 141 139 141 145 154 157 164 170 175 180 183 184 187 193 194 194 196 194 193 193 193 193 194 197 197 201 208 213 215 215 216 216 214 215 217 217 214 212 211 212 211 209 207 205 205 206 208 213 216 214 210 202 193 189 187 181 179 180 177 179 185 188 188 189 191 194 201 205 207 202 192
297 43 143 290 2 334 271 255 188 167 197 184 135 321 290 263 257 279 234 157 132 134 148 151 160 159 145 144 146 151 161 169 179 182 181 182 186 188 190 195 197 198 199 196 195 194 193 194 197 200 200 203 209 214 216 215 216 217 216 217 219 220 218 216 215 215 214 212 210 208 208 209 210 213 215 214 211 203 194 188 184 180 180 182 181 182 188 194 195 196 200 202 208 214 213 207 198
323 329 87 328 36 280 292 314 139 146 256 136 107 237 264 280 283 192 203 167 140 154 160 156 165 161 151 150 153 158 168 185 192 188 185 185 188 191 193 195 198 200 199 198 198 196 196 198 201 204 204 207 212 213 213 214 217 219 219 219 220 222 221 219 218 217 216 215 214 213 213 214 214 214 214 214 211 204 196 189 185 183 187 191 191 191 196 202 201 200 203 206 207 209 210 206 200
22 344 297 334 180 260 307 320 146 146 281 49 109 220 268 283 294 134 188 183 155 166 168 164 170 166 159 154 156 158 166 190 201 198 192 188 191 195 197 196 196 200 200 200 199 198 201 204 208 209 209 213 212 210 211 213 216 219 221 222 222 225 224 223 221 220 220 219 218 218 218 217 216 216 215 213 211 206 199 192 189 191 196 198 194 193 198 203 203 202 203 206 204 199 200 200 195
7 105 233 302 304 288 317 327 298 160 171 356 147 220 278 276 285 2 158 182 175 179 177 170 169 168 161 154 151 151 161 185 204 208 200 194 195 198 199 196 194 199 201 201 201 202 206 210 213 213 214 215 209 205 208 211 215 220 223 224 224 226 227 227 224 222 223 223 223 222 221 220 219 216 214 214 211 208 201 194 195 198 193 189 186 186 189 195 197 197 194 198 203 198 195 194 188
319 16 85 272 286 302 298 323 328 94 143 274 213 210 256 261 275 345 27 192 195 190 180 168 166 169 158 149 148 148 166 187 201 208 202 197 198 199 199 196 193 197 201 202 204 206 210 213 216 218 220 216 205 204 207 209 215 221 223 225 224 225 227 228 225 223 223 225 227 227 224 221 219 216 214 214 211 208 202 195 198 196 187 182 181 183 186 191 196 193 188 191 199 197 192 190 186
211 327 51 313 329 321 282 281 296 4 360 253 240 241 255 264 284 328 352 251 204 193 167 155 157 164 157 149 150 155 178 195 202 205 201 198 197 197 198 195 194 196 200 203 205 208 212 217 221 223 227 221 206 205 208 210 217 221 222 224 224 223 224 225 226 224 224 226 228 228 227 224 219 216 215 214 211 209 202 194 196 192 189 187 182 184 186 191 198 194 189 190 192 193 193 191 186
165 161 131 191 318 292 268 253 253 269 280 251 232 233 248 257 277 306 339 348 202 175 142 147 150 150 158 155 159 170 190 203 201 200 200 200 198 193 194 195 195 197 199 201 203 207 213 217 221 225 227 224 214 210 210 211 216 218 220 221 221 221 220 223 227 227 227 230 230 229 229 227 220 214 214 213 209 206 199 192 190 188 194 195 188 187 186 192 198 194 191 189 185 185 187 189 186
150 124 110 261 302 289 279 269 274 222 188 247 225 220 247 250 265 301 325 2 26 158 149 162 159 157 171 167 174 186 196 200 184 191 198 197 195 192 194 195 194 196 198 199 201 206 212 214 217 222 224 222 218 215 212 210 211 212 214 216 219 220 219 219 225 229 232 233 234 231 229 230 225 215 212 209 205 202 196 191 186 187 198 200 196 192 193 201 198 192 192 189 187 185 180 182 182
124 131 301 306 296 268 275 270 289 244 170 252 218 203 247 250 285 354 342 7 3 329 184 187 174 167 181 175 180 191 194 175 155 186 199 193 188 189 193 194 193 194 195 196 201 207 210 211 214 218 219 217 216 215 211 208 211 211 211 214 217 220 220 218 219 226 231 230 232 232 232 234 231 224 217 210 206 202 194 191 191 196 204 204 199 192 197 203 195 194 195 188 187 188 183 180 176
119 153 160 299 269 276 291 281 298 337 165 257 166 178 244 272 321 43 19 18 15 360 4 341 323 129 186 194 181 187 186 173 177 190 197 194 189 188 193 197 197 197 194 195 202 208 210 211 215 218 216 213 212 212 210 208 211 212 213 217 218 219 221 221 220 223 226 226 230 235 239 237 226 220 219 213 207 203 196 196 200 205 209 208 203 196 199 200 195 197 197 188 183 183 184 180 176
133 184 167 233 251 269 289 284 311 2 43 205 142 169 273 319 349 62 38 23 37 24 27 27 27 73 177 202 166 173 189 190 194 193 194 195 193 193 198 204 205 201 196 197 204 212 216 218 222 225 221 217 213 209 209 209 209 210 213 220 222 221 222 223 222 222 223 226 229 231 236 237 222 211 216 215 205 203 201 201 203 207 213 214 211 205 203 200 196 196 195 193 186 178 177 179 180
263 222 183 170 218 221 223 280 324 359 352 61 101 67 341 347 2 31 7 15 37 25 28 32 22 24 22 183 162 179 189 194 200 196 194 195 196 198 200 210 222 217 203 208 213 218 225 228 230 230 226 225 223 216 210 208 206 206 208 213 217 218 218 216 214 215 217 221 225 224 230 234 221 207 212 213 204 204 203 202 206 211 217 217 214 210 206 203 200 199 198 198 194 188 182 181 183
290 248 205 192 216 237 241 320 6 35 359 4 86 81 278 326 6 13 353 16 34 27 30 31 19 17 20 12 322 197 167 192 218 213 204 194 203 205 201 217 249 288 289 248 234 226 229 236 237 233 225 223 228 226 216 208 204 202 201 201 203 205 207 207 208 210 211 213 216 221 227 231 222 212 209 205 201 204 203 204 211 216 217 216 215 214 211 208 205 203 203 202 203 201 190 181 184
259 246 213 194 197 194 177 73 52 76 289 314 77 118 190 321 7 5 351 14 32 31 30 26 22 21 22 19 13 34 75 77 240 301 357 30 24 24 39 8 17 12 302 290 261 240 234 242 251 248 236 226 226 227 222 212 205 203 201 202 205 206 208 211 213 213 211 208 208 215 222 227 228 219 204 198 203 207 208 210 215 219 220 218 217 216 215 214 211 206 206 208 209 206 194 183 184
227 245 195 164 171 173 163 109 95 180 225 329 4 104 124 337 342 349 350 19 32 31 28 21 22 23 24 28 29 35 44 49 71 33 30 49 50 58 81 101 343 328 294 287 281 255 240 248 267 268 254 241 231 226 222 218 211 208 206 206 209 211 214 217 216 213 210 205 204 208 215 222 227 215 198 199 208 211 213 217 219 222 223 221 220 219 217 217 216 210 209 212 211 207 203 194 187
239 235 171 157 168 162 144 112 115 143 87 324 313 37 96 305 296 344 3 28 29 26 25 20 22 26 28 31 33 34 32 32 39 39 40 56 64 67 88 153 258 323 312 267 263 262 251 260 283 289 275 257 242 228 222 219 216 214 214 213 214 215 217 220 217 212 207 202 201 203 208 214 216 208 200 205 212 214 216 220 221 222 223 222 223 223 219 218 220 217 213 214 212 210 210 205 196
237 195 120 90 84 94 100 110 120 56 72 214 269 19 110 255 310 356 8 25 21 16 21 21 21 28 34 36 36 35 34 34 35 35 35 44 66 70 70 94 359 314 283 258 252 249 244 247 258 268 270 264 256 245 230 223 221 218 219 220 219 216 215 216 214 210 207 202 200 201 205 208 208 205 206 211 215 216 218 221 223 222 224 226 226 226 223 221 222 222 220 218 216 213 212 210 206
155 110 88 62 47 41 50 69 98 93 256 243 260 31 103 169 321 2 17 27 21 16 21 23 23 28 35 39 39 34 33 35 36 38 34 37 52 61 55 51 14 300 277 271 275 278 263 249 245 244 242 245 259 262 247 233 228 224 223 223 221 216 210 209 208 206 205 203 201 201 206 210 208 206 208 212 214 215 218 222 226 227 228 229 228 228 227 225 224 222 222 221 219 216 213 212 211
103 102 98 90 30 20 28 2 52 126 242 260 249 78 83 115 274 26 39 38 35 32 30 28 30 31 33 40 42 35 31 31 34 36 31 32 38 38 32 23 9 327 279 279 293 306 300 277 257 244 233 232 250 264 260 244 233 231 230 224 222 222 214 210 209 207 205 204 205 204 206 209 210 208 209 212 213 214 219 223 225 228 231 232 230 232 230 228 228 225 223 223 220 217 215 213 212
90 100 90 99 43 28 53 303 76 174 249 246 206 102 70 83 115 66 54 48 43 42 39 33 35 36 34 38 41 37 32 30 30 29 26 27 26 24 24 19 7 346 312 305 315 321 320 308 283 264 256 259 261 265 269 253 236 238 242 228 222 232 227 217 212 212 209 207 207 204 203 204 206 208 210 213 215 216 220 224 227 229 232 233 233 234 232 228 228 227 226 225 222 218 215 215 215
129 134 118 126 127 103 195 265 123 214 258 242 228 124 87 129 103 77 64 60 53 49 48 40 38 38 37 38 37 34 30 29 28 23 22 20 17 16 16 13 6 354 345 342 340 332 322 314 311 308 316 331 323 312 307 272 243 240 244 234 223 223 227 224 219 218 215 210 208 205 203 202 204 209 213 215 216 217 221 226 231 235 236 236 235 234 234 232 229 228 227 225 222 219 217 216 218
161 153 126 138 153 140 185 206 166 203 223 295 306 74 117 190 114 89 78 72 62 54 49 45 43 39 40 40 35 31 25 23 23 20 20 16 13 12 9 7 5 360 357 354 350 343 328 307 307 317 323 337 349 353 339 283 253 252 256 246 238 230 228 228 226 225 223 217 212 207 205 205 207 211 215 217 217 219 223 227 233 238 239 239 236 233 233 232 229 227 226 224 221 219 217 217 217
246 131 100 141 184 144 131 177 173 178 147 16 350 84 118 152 114 99 89 75 62 56 46 42 41 34 36 38 32 27 21 18 18 15 14 12 11 10 6 3 2 360 358 355 351 348 341 326 311 303 299 299 312 337 313 250 246 262 261 246 246 244 234 227 225 227 230 228 221 215 211 211 213 216 218 218 218 220 224 227 232 235 238 237 234 232 231 229 229 226 222 220 219 218 216 217 218
205 112 141 204 176 124 116 175 169 113 116 28 336 126 115 100 109 102 92 75 61 57 47 41 38 32 32 30 25 23 16 13 16 15 12 8 8 7 3 0 358 356 353 353 355 355 350 342 321 302 296 287 271 262 260 247 232 237 245 241 238 239 231 222 221 225 232 235 231 224 219 218 218 220 221 219 219 223 223 225 229 231 232 233 231 231 229 227 227 223 218 216 216 214 214 216 218
118 165 190 167 75 90 108 132 17 49 117 292 337 102 104 63 126 124 103 84 68 61 50 45 40 35 32 23 15 13 9 8 9 12 13 9 7 5 1 358 355 353 353 354 358 360 358 351 338 322 315 306 275 249 248 250 235 227 234 237 236 239 233 220 219 223 230 237 237 231 224 223 224 223 224 224 224 224 223 223 227 229 229 229 230 231 229 226 224 220 217 217 214 211 212 213 214
122 168 167 110 114 151 97 125 130 109 133 87 356 1 80 89 291 208 107 94 82 67 53 49 43 40 37 23 12 8 7 7 6 8 9 6 4 1 358 356 353 353 355 355 357 2 5 2 358 347 331 317 301 272 251 252 241 227 229 231 234 243 239 224 218 220 222 231 238 235 228 227 228 226 228 229 229 227 226 226 225 225 227 228 229 229 228 225 221 217 215 215 214 212 210 209 210
60 70 25 55 134 159 165 146 144 152 158 133 61 338 308 97 317 30 102 96 90 77 60 54 46 42 40 27 15 9 7 8 6 7 6 2 360 358 357 355 352 353 354 356 358 1 4 5 5 2 352 334 312 293 279 275 261 237 230 228 229 239 238 228 221 220 221 224 231 234 234 233 231 230 231 232 232 230 228 225 221 221 225 225 223 222 223 222 218 216 215 214 213 210 208 210 209
61 51 28 5 41 117 146 94 81 127 146 145 128 180 244 13 20 71 89 83 85 84 72 62 54 49 44 34 25 17 12 12 10 8 4 1 358 357 357 354 352 353 356 359 359 357 1 4 3 2 2 357 342 317 294 284 278 260 246 234 228 232 233 227 222 221 223 223 224 228 234 237 236 233 231 231 232 230 227 224 222 222 222 219 216 214 214 217 216 217 217 215 213 210 210 213 210
114 95 93 148 151 122 117 110 340 75 118 153 146 160 208 49 57 77 79 74 80 80 78 73 60 53 48 39 33 27 21 18 15 11 7 3 1 359 358 355 354 354 354 356 355 355 1 3 0 359 1 2 360 352 330 303 287 273 267 256 241 233 227 222 220 220 223 226 226 224 229 238 239 231 226 226 225 224 224 225 224 222 218 216 215 212 210 212 215 219 218 215 215 213 215 215 211